Location: Unspecified
(0.0000°N, 0.0000°E)
Time: 19:52:25
(UTC+00:00)

deb Explorer IX - Visible Passes

Search period start: 14 July 2020 00:00
Search period end: 24 July 2020 00:00
Orbit: 543 x 1102 km, 38.8° (Epoch: 13 July)

Date Brightness Start Highest point End Pass type
(mag) Time Alt. Az. Time Alt. Az. Time Alt. Az.
15 Jul ? 20:11:16 10° SW 20:12:16 17° SW 20:12:16 17° SW visible
16 Jul ? 19:48:33 10° SW 19:52:30 73° WNW 19:52:30 73° WNW visible
17 Jul ? 19:25:50 10° SW 19:29:52 72° NW 19:33:00 18° NE visible
18 Jul ? 19:03:05 10° SW 19:07:07 70° NW 19:11:19 10° NE visible
19 Jul ? 18:40:19 10° SW 18:44:22 67° NW 18:48:29 10° NE visible
20 Jul ? 05:32:28 10° NNW 05:39:22 51° NE 05:46:24 10° ESE visible
21 Jul ? 05:09:30 10° NNW 05:16:19 51° NE 05:23:23 10° ESE visible
22 Jul ? 04:46:33 10° NNW 04:53:16 52° NE 05:00:22 10° ESE visible
23 Jul ? 04:23:37 10° NNW 04:30:14 52° NE 04:37:19 10° ESE visible
